Weather in Novokuibishevsk

Russia / Samara Oblast     53°05′58″N   49°56′51″E
temp.,
°C
wind,
m/s
gust,
m/s
humid.,
%
clouds,
%
prec.,
mm/h
press.,
hPa
HPBL,
m
28 february, sun
sun2801:00−11nnw4895100 0.3 1000357
04:00−13nw599599 0.7 1002428
07:00−15nw5994100 0.3 1005372
10:00−16nw599398 0.4 1006361
13:00−13nw689197 0.0 1008433
16:00−13nw599199 0.0 1010458
19:00−16nw479499 0.0 1012207
22:00−16wnw369693 0.1 1015154
1 march, mon
mon101:00−16wnw369678 0.1 1016141
04:00−18nw349677 0.1 101884
07:00−20nw339717 0.0 101929
10:00−18nw34938 0.0 1022200
13:00−14wnw348962 0.0 1022405
16:00−13wnw469180 0.0 1023374
19:00−17w239518 0.0 102221
22:00−18sw239731 0.0 102220
2 march, tue
tue201:00−17sw349752 0.0 102079
04:00−15sw489673 0.0 1017173
07:00−12sw61095100 0.1 1014339
10:00−9sw71294100 0.4 1011500
13:00−5sw81495100 1.1 1007685
16:00−2sw81496100 2.6 1004745
19:00−2sw71396100 1.6 1001603
22:00−1w5998100 2.3 1001342
3 march, wed
wed301:00−5w479575 0.0 1000126
04:00−5w479785 0.3 1001199
07:00−5w4896100 0.4 1001267
10:00−4wnw599395 0.6 1003469
13:00−1nw5894100 0.4 1004621
16:00−1nw579199 0.7 1004636
19:00−3nw379194 0.1 1005249
22:00−5wnw479596 0.1 1008147
4 march, thu
thu401:00−7nw599374 0.0 1009202
04:00−9wnw499567 0.0 1012163
07:00−12wnw459679 0.0 101380
10:00−10w479455 0.0 1015262
13:00−7wsw589380 0.0 1015349
16:00−5sw7129188 0.0 1014573
19:00−5sw81591100 0.0 1012648
22:00−3sw9169099 0.1 1011698